Location: Ladrillo (historical)
(32.8195°N, 117.2231°W)
Time: 19:23:00
(UTC+00:00)

NOAA 18 - Pass Details

Date: 29 April 2021
Orbit: 840 x 861 km, 99.0° (Epoch: 05 May)

Event Time Altitude Azimuth Distance (km) Brightness Sun altitude
Exits shadow 05:25:25 57° 308° (NW) 981 5.7 -31.9°
Drops below altitude 10° 05:29:57 10° 341° (NNW) 2,460 8.4 -32.5°
Sets 05:32:20 0° 344° (NNW) 3,397 9.2 -32.8°
